Location: Unspecified
(48.6709°N, 0.0000°E)
Time: 07:09:38
(UTC+00:00)

IRIDIUM 33 DEB - Visible Passes

Search period start: 04 April 2026 00:00
Search period end: 14 April 2026 00:00
Orbit: 754 x 773 km, 86.4° (Epoch: 29 March)

Date Brightness Start Highest point End Pass type
(mag) Time Alt. Az. Time Alt. Az. Time Alt. Az.
4 Apr ? 00:42:08 10° N 00:45:03 33° NNE 00:45:03 33° NNE visible
4 Apr ? 02:23:32 10° NNW 02:25:14 16° NW 02:25:14 16° NW visible
5 Apr ? 00:04:45 10° NNE 00:07:30 25° NE 00:07:30 25° NE visible
5 Apr ? 01:45:09 10° NNW 01:47:41 25° NW 01:47:41 25° NW visible
5 Apr ? 23:27:49 10° NNE 23:29:57 16° NE 23:29:57 16° NE visible
6 Apr ? 01:07:11 10° N 01:10:08 34° NNW 01:10:08 34° NNW visible
7 Apr ? 00:29:29 10° N 00:32:35 36° NNE 00:32:35 36° NNE visible
7 Apr ? 02:11:03 10° NW 02:12:45 16° NW 02:12:45 16° NW visible
7 Apr ? 23:52:04 10° NNE 23:55:02 27° NE 23:55:02 27° NE visible
8 Apr ? 01:32:35 10° NNW 01:35:12 25° NW 01:35:12 25° NW visible
8 Apr ? 23:15:02 10° NNE 23:17:29 18° NE 23:17:29 18° NE visible
9 Apr ? 00:54:34 10° N 00:57:40 36° NNW 00:57:40 36° NNW visible
9 Apr ? 22:39:30 10° NE 22:39:57 10° ENE 22:39:57 10° ENE visible
10 Apr ? 00:16:50 10° N 00:20:07 39° NNE 00:20:07 39° NNE visible
10 Apr ? 01:58:34 10° NW 02:00:18 15° NW 02:00:18 15° NW visible
10 Apr ? 23:39:22 10° N 23:42:35 30° NE 23:42:35 30° NE visible
11 Apr ? 01:20:01 10° NNW 01:22:45 25° NW 01:22:45 25° NW visible
11 Apr ? 23:02:16 10° NNE 23:05:03 20° NE 23:05:03 20° NE visible
12 Apr ? 00:41:56 10° N 00:45:13 38° NNW 00:45:13 38° NNW visible
12 Apr ? 22:26:15 10° NE 22:27:30 11° ENE 22:27:30 11° ENE visible
13 Apr ? 00:04:10 10° N 00:07:41 44° N 00:07:41 44° N visible
13 Apr ? 01:46:07 10° NW 01:47:52 15° WNW 01:47:52 15° WNW visible
13 Apr ? 23:26:39 10° N 23:30:09 34° NE 23:30:09 34° NE visible
